Location: Observatoire
(46.1952°N, 5.3391°E)
Time: 22:49:11
(UTC+01:00)

A-11 Canister half - Pass Details

Date: 22 February 2026
Orbit: 1525 x 1683 km, 47.3° (Epoch: 9 March)

Event Time Altitude Azimuth Distance (km) Brightness Sun altitude
Rises 22:50:19 0° 292° (WNW) 4,677 12.2 -45.4°
Reaches altitude 10° 22:53:46 10° 282° (WNW) 3,693 11.4 -45.8°
Enters shadow 22:58:29 26° 256° (WSW) 2,663 10.3 -46.4°
Maximum altitude 23:01:32 31° 225° (SW) 2,431 - -46.8°
Drops below altitude 10° 23:09:24 10° 168° (SSE) 3,737 - -47.6°
Sets 23:12:56 0° 158° (SSE) 4,739 - -48.0°
